Terminal Aerodrome Forecast
Issued by NWS

Home | Current Version | Previous Version | Text Only | Print | Product List | Glossary On
Versions: 1 2 3 4 5 6 7 8 9 10 11 12 13
000
FTUS46 KSGX 121700
TAFTRM
TAF
KTRM 121739Z 1218/1318 VRB06KT P6SM SCT200
     FM122000 14008KT P6SM SCT200
     FM130300 33010KT P6SM SKC
     FM130500 VRB03KT P6SM SCT200=

USA.gov is the U.S. government's official web portal to all federal, state and local government web resources and services.